Weather History for KDEW - August, 2014

Change the Weather History Date:

Monday, August 18, 2014

  Actual Average Record
Temperature  
Mean Temperature 72 °F 65 °F  
Max Temperature 91 °F 83 °F 97 °F (2008)
Min Temperature 53 °F 47 °F 39 °F (2002)
Degree Days  
Heating Degree Days 0 2  
Month to date heating degree days 0 32  
Since 1 June heating degree days 224 300  
Since 1 July heating degree days 18 100  
Cooling Degree Days 7 2  
Month to date cooling degree days 118 52  
Year to date cooling degree days 330 149  
Since 1 June cooling degree days 330 146  
Growing Degree Days 22 (Base 50)    
Moisture  
Dew Point 53 °F    
Average Humidity 58    
Maximum Humidity 93    
Minimum Humidity 22    
Precipitation  
Precipitation 0.00 in 0.04 in 0.02 in (2008)
Month to date precipitation 0.44 0.40  
Year to date precipitation 14.12 13.00  
Sea Level Pressure  
Sea Level Pressure 29.89 in    
Wind  
Wind Speed 4 mph (NW)    
Max Wind Speed 13 mph    
Max Gust Speed 16 mph    
Visibility 10 miles    
Events      
T = Trace of Precipitation, MM = Missing Value Source: NWS Daily Summary

Daily Weather History Graph

Daily Weather History Graph

Search for Another Location

Airport or City:

Trip Planner

Search our weather history database for the weather conditions in past years. The results will help you decide how hot, cold, wet, or windy it might be!

Date:

Astronomy

Aug. 18, 2014 Rise Set
Actual Time 5:48 AM PDT 7:57 PM PDT
Civil Twilight 5:15 AM PDT 8:30 PM PDT
Nautical Twilight 4:33 AM PDT 9:12 PM PDT
Astronomical Twilight 3:45 AM PDT 9:59 PM PDT
Moon No Moon Rise 3:11 PM PDT (8/18)
Length of Visible Light 15h 15m
Length of Day
14h 08m
Last Quarter, 37% of the Moon is Illuminated
Aug 18
Last Quarter
Aug 25
New
Sep 2
First Quarter
Sep 8
Full
Sep 15
Last Quarter

Hourly Weather History & Observations

Time (PDT) Temp. Heat Index Dew Point Humidity Pressure Visibility Wind Dir Wind Speed Gust Speed Precip Events Conditions
12:53 AM 60.1 °F - 55.0 °F 83% 29.99 in 10.0 mi Calm Calm - N/A   Clear
1:53 AM 59.0 °F - 54.0 °F 83% 29.99 in 10.0 mi North 3.5 mph - N/A   Clear
2:53 AM 60.1 °F - 54.0 °F 80% 29.98 in 10.0 mi Calm Calm - N/A   Clear
3:53 AM 55.0 °F - 52.0 °F 89% 29.98 in 10.0 mi Calm Calm - N/A   Clear
4:53 AM 55.9 °F - 53.1 °F 90% 29.98 in 10.0 mi NW 3.5 mph - N/A   Clear
7:53 AM 66.9 °F - 57.0 °F 70% 29.97 in 10.0 mi NE 4.6 mph - N/A   Clear
8:53 AM 72.0 °F - 57.0 °F 59% 29.97 in 10.0 mi NE 4.6 mph - N/A   Clear
9:53 AM 73.9 °F - 57.9 °F 57% 29.97 in 10.0 mi South 3.5 mph - N/A   Clear
10:53 AM 78.1 °F - 57.0 °F 48% 29.95 in 10.0 mi South 5.8 mph - N/A   Clear
11:53 AM 81.0 °F 80.7 °F 55.0 °F 41% 29.93 in 10.0 mi Calm Calm - N/A   Clear
12:53 PM 84.0 °F 82.5 °F 53.1 °F 34% 29.91 in 10.0 mi North - - N/A   Clear
1:53 PM 87.1 °F - 51.1 °F 29% 29.89 in 10.0 mi SW 10.4 mph - N/A   Clear
2:53 PM 90.0 °F - 48.9 °F 24% 29.86 in 10.0 mi NNW 10.4 mph - N/A   Clear
4:53 PM 89.1 °F - 50.0 °F 26% 29.81 in 10.0 mi West 5.8 mph - N/A   Clear
5:53 PM 89.1 °F - 46.9 °F 23% 29.79 in 10.0 mi WNW 6.9 mph - N/A   Scattered Clouds
6:53 PM 87.1 °F - 45.0 °F 23% 29.78 in 10.0 mi SW 3.5 mph - N/A   Clear
7:53 PM 77.0 °F - 51.1 °F 40% 29.77 in 10.0 mi ENE 3.5 mph - N/A   Clear
9:53 PM 68.0 °F - 52.0 °F 56% 29.75 in 10.0 mi North 3.5 mph - N/A   Clear
10:53 PM 62.1 °F - 53.1 °F 72% 29.75 in 10.0 mi Calm Calm - N/A   Clear
11:53 PM 63.0 °F - 53.1 °F 70% 29.75 in 10.0 mi Calm Calm - N/A   Clear